sat.trackr.live / text

‹ back to catalog

STARLINK-11308 [DTC]

NORAD 61246 · 2024-175D

PAYLOAD ACTIVE UNKNOWN

§ Identity

Operator
Country
US
Launch date
2024-09-25
Launch site
AFWTR
Launch vehicle
Mass (kg)
RCS (m²)

Purposes: comms

External: N2YO · Heavens-Above · Gunter

§ Orbital elements

Epoch: 2026-09-21T21:25:37.461216Z

Period
91.74 min
Inclination
53.1598°
Eccentricity
0.0001101
Mean motion
15.69705973 rev/d
Perigee alt
359.0 km
Apogee alt
360.5 km
Semi-major
6,737.9 km
B*
3.7800e-6
RAAN
168.9647°
Arg perigee
79.2111°
Mean anomaly
280.9031°
Rev number
11,418

§ Raw data

STARLINK-11308 [DTC]1 61246U 24175D   26264.89279469 -.00000131  00000+0  37800-5 0  99902 61246  53.1598 168.9647 0001101  79.2111 280.9031 15.69705973114187

JSON: /api/v1/satellites/61246 · /tle

For live sub-satellite position, see the globe view (requires WebGL).

§ Visibility from observer

Set your observer location to see the next 7 days of passes ≥ 10°. The values pass through the URL so the page stays shareable.

No JS? Fill the form by hand. The geolocation button needs JavaScript.